Time,TemperatureF,DewpointF,PressureIn,WindDirection,WindDirectionDegrees,WindSpeedMPH,WindSpeedGustMPH,Humidity,HourlyPrecipIn,Conditions,Clouds,dailyrainin,SoftwareType,DateUTC
2013-12-18 00:02:00,46.3,39.0,30.12,NW,326,0.0,2.0,75,0.00,,,0.00,weatherlink.com 1.10,2013-12-18 05:02:00,
2013-12-18 00:17:00,48.0,39.0,30.13,NW,310,1.0,2.0,72,0.00,,,0.00,weatherlink.com 1.10,2013-12-18 05:17:00,
2013-12-18 00:32:00,48.4,39.0,30.13,NW,312,1.0,2.0,71,0.00,,,0.00,weatherlink.com 1.10,2013-12-18 05:32:00,
2013-12-18 00:47:00,48.5,39.0,30.14,WNW,291,1.0,3.0,70,0.00,,,0.00,weatherlink.com 1.10,2013-12-18 05:47:00,
2013-12-18 01:02:00,48.1,38.0,30.15,NNW,346,3.0,7.0,69,0.00,,,0.00,weatherlink.com 1.10,2013-12-18 06:02:00,
2013-12-18 01:17:00,47.5,36.0,30.16,NNW,338,1.0,5.0,64,0.00,,,0.00,weatherlink.com 1.10,2013-12-18 06:17:00,
2013-12-18 01:32:00,46.9,33.0,30.16,NNW,347,1.0,4.0,60,0.00,,,0.00,weatherlink.com 1.10,2013-12-18 06:32:00,
2013-12-18 01:47:00,46.3,31.0,30.16,NW,319,3.0,6.0,55,0.00,,,0.00,weatherlink.com 1.10,2013-12-18 06:47:00,
2013-12-18 02:02:00,45.5,30.0,30.16,NW,316,2.0,4.0,56,0.00,,,0.00,weatherlink.com 1.10,2013-12-18 07:02:00,
2013-12-18 02:17:00,44.5,30.0,30.16,West,274,0.0,2.0,58,0.00,,,0.00,weatherlink.com 1.10,2013-12-18 07:17:00,
2013-12-18 02:32:00,43.8,31.0,30.17,West,279,1.0,2.0,60,0.00,,,0.00,weatherlink.com 1.10,2013-12-18 07:32:00,
2013-12-18 02:47:00,42.8,30.0,30.17,WNW,303,1.0,2.0,62,0.00,,,0.00,weatherlink.com 1.10,2013-12-18 07:47:00,
2013-12-18 03:03:00,42.7,30.0,30.17,WSW,250,1.0,4.0,62,0.00,,,0.00,weatherlink.com 1.10,2013-12-18 08:03:00,
2013-12-18 03:18:00,42.4,30.0,30.18,WSW,253,0.0,2.0,62,0.00,,,0.00,weatherlink.com 1.10,2013-12-18 08:18:00,
2013-12-18 03:33:00,42.0,30.0,30.18,West,276,1.0,4.0,62,0.00,,,0.00,weatherlink.com 1.10,2013-12-18 08:33:00,
2013-12-18 03:48:00,41.6,30.0,30.18,WNW,294,0.0,3.0,63,0.00,,,0.00,weatherlink.com 1.10,2013-12-18 08:48:00,
2013-12-18 04:03:00,41.0,29.0,30.19,NW,322,1.0,2.0,63,0.00,,,0.00,weatherlink.com 1.10,2013-12-18 09:03:00,
2013-12-18 04:33:00,40.0,29.0,30.19,West,281,0.0,1.0,64,0.00,,,0.00,weatherlink.com 1.10,2013-12-18 09:33:00,
2013-12-18 04:48:00,39.2,29.0,30.20,WNW,285,0.0,1.0,66,0.00,,,0.00,weatherlink.com 1.10,2013-12-18 09:48:00,
2013-12-18 05:03:00,38.5,28.0,30.20,NW,318,0.0,2.0,67,0.00,,,0.00,weatherlink.com 1.10,2013-12-18 10:03:00,
2013-12-18 05:19:00,38.6,28.0,30.21,WNW,302,0.0,1.0,66,0.00,,,0.00,weatherlink.com 1.10,2013-12-18 10:19:00,
2013-12-18 05:33:00,37.8,28.0,30.21,WNW,302,0.0,0.0,68,0.00,,,0.00,weatherlink.com 1.10,2013-12-18 10:33:00,
2013-12-18 05:48:00,37.2,28.0,30.22,NW,304,1.0,1.0,70,0.00,,,0.00,weatherlink.com 1.10,2013-12-18 10:48:00,
2013-12-18 06:03:00,37.3,28.0,30.22,WNW,301,0.0,2.0,70,0.00,,,0.00,weatherlink.com 1.10,2013-12-18 11:03:00,
2013-12-18 06:18:00,37.2,28.0,30.22,WNW,301,0.0,1.0,69,0.00,,,0.00,weatherlink.com 1.10,2013-12-18 11:18:00,
2013-12-18 06:33:00,37.1,28.0,30.23,WNW,290,1.0,1.0,69,0.00,,,0.00,weatherlink.com 1.10,2013-12-18 11:33:00,
2013-12-18 06:48:00,36.8,28.0,30.23,WNW,290,0.0,2.0,70,0.00,,,0.00,weatherlink.com 1.10,2013-12-18 11:48:00,
2013-12-18 07:03:00,36.8,27.0,30.24,West,276,0.0,1.0,68,0.00,,,0.00,weatherlink.com 1.10,2013-12-18 12:03:00,
2013-12-18 07:18:00,36.2,27.0,30.24,WNW,285,1.0,2.0,69,0.00,,,0.00,weatherlink.com 1.10,2013-12-18 12:18:00,
2013-12-18 07:33:00,35.9,27.0,30.25,WNW,285,0.0,1.0,70,0.00,,,0.00,weatherlink.com 1.10,2013-12-18 12:33:00,
2013-12-18 07:48:00,35.6,27.0,30.25,WNW,285,0.0,1.0,70,0.00,,,0.00,weatherlink.com 1.10,2013-12-18 12:48:00,
2013-12-18 08:03:00,35.1,27.0,30.26,WNW,285,0.0,1.0,72,0.00,,,0.00,weatherlink.com 1.10,2013-12-18 13:03:00,
2013-12-18 08:18:00,35.5,27.0,30.26,WNW,285,0.0,1.0,71,0.00,,,0.00,weatherlink.com 1.10,2013-12-18 13:18:00,
2013-12-18 08:33:00,35.8,27.0,30.26,WNW,285,0.0,1.0,70,0.00,,,0.00,weatherlink.com 1.10,2013-12-18 13:33:00,
2013-12-18 08:48:00,36.9,27.0,30.27,WNW,285,0.0,1.0,68,0.00,,,0.00,weatherlink.com 1.10,2013-12-18 13:48:00,
2013-12-18 09:03:00,37.9,27.0,30.27,North,360,0.0,3.0,65,0.00,,,0.00,weatherlink.com 1.10,2013-12-18 14:03:00,
2013-12-18 09:18:00,39.0,27.0,30.27,NW,321,1.0,5.0,62,0.00,,,0.00,weatherlink.com 1.10,2013-12-18 14:18:00,
2013-12-18 09:33:00,40.0,27.0,30.28,West,264,2.0,5.0,59,0.00,,,0.00,weatherlink.com 1.10,2013-12-18 14:33:00,
2013-12-18 09:48:00,41.1,27.0,30.28,West,276,2.0,4.0,57,0.00,,,0.00,weatherlink.com 1.10,2013-12-18 14:48:00,
2013-12-18 10:03:00,42.4,26.0,30.28,WNW,288,1.0,4.0,53,0.00,,,0.00,weatherlink.com 1.10,2013-12-18 15:03:00,
2013-12-18 10:19:00,43.8,25.0,30.29,North,351,5.0,6.0,47,0.00,,,0.00,weatherlink.com 1.10,2013-12-18 15:19:00,
2013-12-18 10:34:00,45.2,25.0,30.29,NE,39,2.0,4.0,45,0.00,,,0.00,weatherlink.com 1.10,2013-12-18 15:34:00,
2013-12-18 10:49:00,46.0,23.0,30.29,North,349,1.0,5.0,40,0.00,,,0.00,weatherlink.com 1.10,2013-12-18 15:49:00,
2013-12-18 11:04:00,47.0,23.0,30.29,NE,39,3.0,6.0,39,0.00,,,0.00,weatherlink.com 1.10,2013-12-18 16:04:00,
2013-12-18 11:19:00,47.8,22.0,30.30,WNW,301,4.0,5.0,37,0.00,,,0.00,weatherlink.com 1.10,2013-12-18 16:19:00,
2013-12-18 11:34:00,48.5,23.0,30.30,WSW,257,1.0,4.0,37,0.00,,,0.00,weatherlink.com 1.10,2013-12-18 16:34:00,
2013-12-18 11:49:00,49.1,22.0,30.29,WNW,301,2.0,6.0,34,0.00,,,0.00,weatherlink.com 1.10,2013-12-18 16:49:00,
2013-12-18 12:04:00,49.2,22.0,30.29,NW,308,2.0,4.0,34,0.00,,,0.00,weatherlink.com 1.10,2013-12-18 17:04:00,
2013-12-18 12:19:00,49.7,21.0,30.28,ENE,63,1.0,5.0,33,0.00,,,0.00,weatherlink.com 1.10,2013-12-18 17:19:00,
2013-12-18 12:34:00,50.3,21.0,30.27,NNW,333,0.0,5.0,32,0.00,,,0.00,weatherlink.com 1.10,2013-12-18 17:34:00,
2013-12-18 12:49:00,51.1,23.0,30.27,WSW,248,3.0,4.0,33,0.00,,,0.00,weatherlink.com 1.10,2013-12-18 17:49:00,
2013-12-18 13:04:00,51.5,21.0,30.26,WNW,299,1.0,7.0,30,0.00,,,0.00,weatherlink.com 1.10,2013-12-18 18:04:00,
2013-12-18 13:34:00,53.0,20.0,30.25,NNE,12,0.0,5.0,28,0.00,,,0.00,weatherlink.com 1.10,2013-12-18 18:34:00,
2013-12-18 13:49:00,53.8,21.0,30.25,NW,305,1.0,2.0,28,0.00,,,0.00,weatherlink.com 1.10,2013-12-18 18:49:00,
2013-12-18 14:04:00,53.5,20.0,30.25,ESE,104,0.0,5.0,27,0.00,,,0.00,weatherlink.com 1.10,2013-12-18 19:04:00,
2013-12-18 14:19:00,53.5,20.0,30.24,NW,308,0.0,3.0,27,0.00,,,0.00,weatherlink.com 1.10,2013-12-18 19:19:00,
2013-12-18 14:34:00,53.3,20.0,30.24,NNW,328,2.0,4.0,27,0.00,,,0.00,weatherlink.com 1.10,2013-12-18 19:34:00,
2013-12-18 14:49:00,53.4,19.0,30.24,WNW,300,2.0,6.0,26,0.00,,,0.00,weatherlink.com 1.10,2013-12-18 19:49:00,
2013-12-18 15:04:00,53.6,20.0,30.23,North,11,1.0,3.0,27,0.00,,,0.00,weatherlink.com 1.10,2013-12-18 20:04:00,
2013-12-18 15:19:00,53.9,20.0,30.23,West,278,2.0,3.0,26,0.00,,,0.00,weatherlink.com 1.10,2013-12-18 20:19:00,
2013-12-18 15:34:00,53.9,20.0,30.23,WNW,291,1.0,6.0,26,0.00,,,0.00,weatherlink.com 1.10,2013-12-18 20:34:00,
2013-12-18 15:49:00,53.6,20.0,30.23,NNW,328,0.0,3.0,27,0.00,,,0.00,weatherlink.com 1.10,2013-12-18 20:49:00,
2013-12-18 16:04:00,53.4,20.0,30.23,WNW,287,0.0,2.0,27,0.00,,,0.00,weatherlink.com 1.10,2013-12-18 21:04:00,
2013-12-18 16:19:00,52.8,22.0,30.23,WSW,256,0.0,1.0,30,0.00,,,0.00,weatherlink.com 1.10,2013-12-18 21:19:00,
2013-12-18 16:34:00,52.3,23.0,30.24,West,276,0.0,1.0,32,0.00,,,0.00,weatherlink.com 1.10,2013-12-18 21:34:00,
2013-12-18 16:49:00,51.8,24.0,30.24,WNW,293,0.0,1.0,34,0.00,,,0.00,weatherlink.com 1.10,2013-12-18 21:49:00,
2013-12-18 17:04:00,50.3,23.0,30.24,WNW,293,0.0,0.0,35,0.00,,,0.00,weatherlink.com 1.10,2013-12-18 22:04:00,
2013-12-18 17:19:00,49.2,24.0,30.24,WNW,293,0.0,0.0,38,0.00,,,0.00,weatherlink.com 1.10,2013-12-18 22:19:00,
2013-12-18 17:34:00,47.4,26.0,30.25,WNW,293,0.0,0.0,43,0.00,,,0.00,weatherlink.com 1.10,2013-12-18 22:34:00,
2013-12-18 17:49:00,45.4,24.0,30.25,WNW,293,0.0,0.0,44,0.00,,,0.00,weatherlink.com 1.10,2013-12-18 22:49:00,
2013-12-18 18:04:00,43.8,24.0,30.25,WNW,293,0.0,0.0,46,0.00,,,0.00,weatherlink.com 1.10,2013-12-18 23:04:00,
2013-12-18 18:19:00,43.3,25.0,30.25,WNW,292,0.0,0.0,49,0.00,,,0.00,weatherlink.com 1.10,2013-12-18 23:19:00,
2013-12-18 18:34:00,42.0,24.0,30.26,WNW,293,0.0,0.0,50,0.00,,,0.00,weatherlink.com 1.10,2013-12-18 23:34:00,
2013-12-18 18:49:00,40.9,25.0,30.26,WNW,293,0.0,0.0,53,0.00,,,0.00,weatherlink.com 1.10,2013-12-18 23:49:00,
2013-12-18 19:04:00,40.0,27.0,30.26,WNW,293,0.0,0.0,60,0.00,,,0.00,weatherlink.com 1.10,2013-12-19 00:04:00,
2013-12-18 19:19:00,39.0,28.0,30.26,WNW,293,0.0,0.0,65,0.00,,,0.00,weatherlink.com 1.10,2013-12-19 00:19:00,
2013-12-18 19:34:00,38.2,27.0,30.26,WNW,292,0.0,0.0,65,0.00,,,0.00,weatherlink.com 1.10,2013-12-19 00:34:00,
2013-12-18 19:49:00,37.6,28.0,30.27,WNW,293,0.0,0.0,69,0.00,,,0.00,weatherlink.com 1.10,2013-12-19 00:49:00,
2013-12-18 20:04:00,37.2,28.0,30.26,WNW,293,0.0,0.0,69,0.00,,,0.00,weatherlink.com 1.10,2013-12-19 01:04:00,
2013-12-18 20:19:00,36.5,26.0,30.27,WNW,293,0.0,0.0,67,0.00,,,0.00,weatherlink.com 1.10,2013-12-19 01:19:00,
2013-12-18 20:34:00,36.3,28.0,30.27,WNW,293,0.0,0.0,71,0.00,,,0.00,weatherlink.com 1.10,2013-12-19 01:34:00,
2013-12-18 20:49:00,35.9,28.0,30.27,WNW,292,0.0,0.0,73,0.00,,,0.00,weatherlink.com 1.10,2013-12-19 01:49:00,
2013-12-18 21:04:00,35.3,25.0,30.27,WNW,293,0.0,0.0,67,0.00,,,0.00,weatherlink.com 1.10,2013-12-19 02:04:00,
2013-12-18 21:19:00,35.7,27.0,30.28,WNW,293,0.0,0.0,71,0.00,,,0.00,weatherlink.com 1.10,2013-12-19 02:19:00,
2013-12-18 21:34:00,35.4,29.0,30.27,WNW,293,0.0,0.0,76,0.00,,,0.00,weatherlink.com 1.10,2013-12-19 02:34:00,
2013-12-18 21:49:00,34.7,27.0,30.27,WNW,293,0.0,0.0,74,0.00,,,0.00,weatherlink.com 1.10,2013-12-19 02:49:00,
2013-12-18 22:04:00,34.2,26.0,30.27,WNW,293,0.0,0.0,72,0.00,,,0.00,weatherlink.com 1.10,2013-12-19 03:04:00,
2013-12-18 22:19:00,34.6,26.0,30.27,WNW,292,0.0,0.0,70,0.00,,,0.00,weatherlink.com 1.10,2013-12-19 03:19:00,
2013-12-18 22:34:00,34.2,25.0,30.27,WNW,293,0.0,0.0,70,0.00,,,0.00,weatherlink.com 1.10,2013-12-19 03:34:00,
2013-12-18 22:49:00,33.9,25.0,30.28,WNW,293,0.0,0.0,71,0.00,,,0.00,weatherlink.com 1.10,2013-12-19 03:49:00,
2013-12-18 23:04:00,34.9,27.0,30.28,WNW,293,0.0,0.0,73,0.00,,,0.00,weatherlink.com 1.10,2013-12-19 04:04:00,
2013-12-18 23:19:00,34.3,27.0,30.28,WNW,292,0.0,0.0,76,0.00,,,0.00,weatherlink.com 1.10,2013-12-19 04:19:00,
2013-12-18 23:34:00,33.6,27.0,30.28,WNW,293,0.0,0.0,77,0.00,,,0.00,weatherlink.com 1.10,2013-12-19 04:34:00,
2013-12-18 23:49:00,33.8,28.0,30.27,WNW,292,0.0,0.0,79,0.00,,,0.00,weatherlink.com 1.10,2013-12-19 04:49:00,